Theta_e
338 339 336 341 344 342 350 348 348 346 338 339 342 343 341 340 338 338 343 344 343 342 344 348 349 354 353 353 356 356 356 355
334 336 337 340 342 349 349 351 352 341 338 341 341 341 338 337 338 337 339 340 341 343 346 348 349 353 354 353 353 352 353 353
331 333 340 341 343 343 342 341 351 344 339 334 337 336 336 337 336 335 337 339 343 345 347 348 350 353 353 353 353 353 355 355
325 329 340 339 340 343 347 344 342 343 338 335 335 334 335 335 330 333 336 338 342 346 348 348 351 353 353 353 354 353 353 355
324 329 333 342 339 341 338 335 340 337 336 334 337 335 337 343 349 344 348 356 355 357 358 353 351 355 357 358 357 357 356 357
324 329 332 339 341 339 336 338 339 335 337 341 343 348 360 363 362 363 363 363 362 361 361 365 364 364 364 362 360 359 357 358
335 338 336 338 340 337 335 335 339 336 341 341 343 354 363 363 362 362 362 362 362 363 363 363 363 358 354 353 353 354 353 350
334 334 339 339 339 337 334 337 335 332 335 335 357 361 362 360 361 362 362 362 360 358 355 355 356 354 350 349 348 347 344 345
332 338 339 340 337 334 333 335 334 335 344 361 362 360 359 359 359 359 360 357 356 353 351 351 351 349 348 346 343 343 345 342
334 337 342 337 333 335 335 337 337 346 358 360 358 356 356 356 358 359 357 355 353 351 350 348 347 346 345 342 343 342 341 340
335 339 338 337 334 338 339 340 349 361 360 358 358 357 357 354 353 354 353 351 351 350 348 347 345 344 341 342 341 342 341 336
332 339 341 336 333 338 343 359 358 359 360 359 357 362 357 351 352 352 351 349 348 349 348 345 343 341 340 340 342 343 342 338
337 338 336 334 341 340 352 358 356 357 357 356 354 354 351 350 350 349 348 347 346 345 346 343 342 341 340 341 342 341 339 340
330 334 335 333 334 336 332 353 355 355 355 352 352 351 351 350 348 347 346 346 346 347 346 342 342 342 341 342 343 339 336 336
328 332 330 332 332 334 349 353 353 353 351 352 352 351 350 349 347 346 345 345 346 346 343 342 343 342 341 343 342 335 327 334
325 329 337 334 342 342 350 351 351 350 352 351 351 350 349 347 346 345 346 345 344 344 343 342 343 344 345 344 341 335 327 327
328 330 336 337 349 348 350 350 352 352 351 351 351 350 348 347 346 345 344 344 344 343 342 342 343 343 341 342 341 337 334 330
326 326 327 335 350 353 353 353 352 352 351 349 349 349 348 347 345 343 343 344 343 343 342 339 342 341 340 336 336 337 337 336
339 336 337 334 352 352 353 352 351 351 349 348 345 345 345 342 343 343 341 343 342 341 340 340 339 338 339 337 336 334 335 335
Wind_Speed
12 14 8 3 4 8 8 2 3 3 6 5 4 7 7 5 7 7 15 16 13 11 19 24 26 31 35 35 35 33 31 28
5 10 7 10 11 5 4 4 1 5 3 5 6 9 6 8 8 7 8 8 7 7 17 23 27 29 32 32 34 33 30 29
5 2 11 1 3 7 6 5 5 3 6 7 10 9 10 10 10 10 10 9 9 9 20 25 28 29 30 29 29 29 27 24
12 6 17 8 8 8 5 5 3 5 6 4 11 9 12 11 8 6 9 7 10 12 20 23 26 29 30 28 27 26 24 22
10 6 2 14 6 12 4 4 5 6 5 0 8 11 6 11 8 8 9 10 10 11 13 10 10 9 9 11 16 19 21 19
8 8 6 10 6 16 10 6 4 5 6 9 14 15 13 12 14 13 13 13 14 12 13 19 21 20 17 15 9 8 11 2
5 5 5 12 20 13 9 8 10 12 17 15 16 16 14 16 17 16 14 13 12 11 11 16 19 20 23 22 23 23 26 24
3 8 6 6 16 17 9 8 5 15 8 5 13 17 14 13 16 14 12 12 11 11 14 15 16 17 21 22 22 24 27 27
5 0 4 1 11 11 6 7 20 19 12 14 16 18 17 14 14 13 11 10 10 10 13 16 18 20 21 22 22 26 27 25
4 0 1 9 10 13 12 15 12 17 18 16 16 11 14 13 16 13 12 10 9 13 17 20 22 22 21 21 23 25 26 25
5 4 4 9 9 9 8 4 27 21 19 20 19 18 7 10 12 13 10 11 15 21 22 20 19 17 20 21 22 23 22 24
3 5 6 7 2 13 20 9 20 29 24 24 18 6 5 10 15 14 18 19 20 22 21 20 17 16 19 19 19 19 17 19
3 4 6 7 17 13 9 11 19 27 26 22 10 7 12 16 14 20 20 22 24 22 20 18 16 16 17 16 16 14 14 15
4 4 3 2 5 14 7 26 25 21 21 11 18 21 20 18 16 18 18 21 23 22 21 17 16 16 14 14 12 12 12 15
9 7 7 5 7 3 27 28 15 22 15 22 25 21 20 18 17 17 20 21 21 24 21 16 14 13 14 13 13 13 14 16
5 4 6 7 4 19 26 27 23 20 23 25 24 22 19 16 15 15 20 21 24 25 20 17 14 12 13 16 14 13 14 15
0 4 2 6 14 17 16 22 19 22 26 24 25 20 20 17 15 20 20 21 25 23 20 17 14 14 14 14 15 13 13 14
5 6 6 6 12 23 24 22 24 22 19 21 25 23 20 16 22 23 22 23 25 23 20 16 16 15 13 12 12 13 10 10
3 7 7 10 19 24 25 25 25 25 23 21 15 25 27 18 23 26 24 26 26 23 20 16 15 14 13 12 8 12 11 11
Wind_Direction
133 151 122 241 55 161 109 77 47 264 288 354 174 208 212 176 153 150 170 190 192 186 182 174 178 186 192 200 205 208 211 218
176 95 22 154 174 93 19 102 247 275 260 199 179 199 184 152 166 160 145 173 160 156 163 170 181 188 197 207 211 213 216 221
87 159 149 123 102 49 115 135 162 165 262 208 191 176 168 168 163 156 159 163 159 160 168 173 181 190 200 208 212 215 217 223
233 202 163 118 139 110 109 201 223 165 257 275 187 159 158 164 176 164 150 154 159 149 158 161 175 189 198 205 211 217 222 226
328 36 176 147 168 169 129 70 220 147 252 138 116 131 133 108 89 76 85 76 81 76 74 97 139 162 185 209 226 231 229 234
200 227 149 131 164 168 158 145 184 209 128 130 114 105 107 91 93 89 86 89 88 77 69 70 73 86 90 75 68 242 237 94
214 262 171 166 165 164 174 175 156 182 143 152 134 128 122 115 110 101 94 87 83 82 77 72 75 75 75 76 75 79 83 81
175 291 72 142 172 175 194 152 145 148 124 153 116 112 110 111 108 101 98 96 92 87 86 81 82 81 79 78 81 82 80 80
221 156 88 106 195 211 153 139 141 153 151 143 128 123 126 122 113 112 105 98 90 90 86 88 90 90 87 88 85 82 80 80
175 127 107 245 195 187 146 154 119 110 139 136 122 109 119 124 125 121 119 113 105 108 102 97 94 91 91 87 85 80 78 72
132 179 281 310 169 138 138 138 135 127 125 117 115 103 75 130 126 128 124 119 116 115 111 107 102 101 96 92 86 79 76 74
107 124 201 243 292 128 113 116 151 135 140 141 143 120 190 149 122 119 123 126 122 121 119 115 113 107 103 94 86 80 85 86
140 158 268 244 151 140 101 186 171 150 155 156 156 156 149 130 121 126 133 132 132 129 127 127 124 118 108 103 96 95 95 96
102 112 261 189 194 164 191 156 165 160 157 127 123 129 136 131 129 131 134 137 140 134 135 140 138 130 124 114 114 107 104 100
179 204 215 245 189 79 149 152 164 151 148 138 137 142 141 140 137 141 142 145 151 145 143 144 146 141 135 134 133 119 106 117
101 290 226 181 77 146 152 157 160 154 149 144 146 146 144 142 141 143 148 150 148 148 147 144 143 140 138 145 145 130 119 119
226 282 48 343 137 146 153 148 143 144 148 147 145 150 148 147 146 151 154 157 155 152 150 147 148 145 147 154 160 149 137 136
214 244 169 206 163 139 137 146 145 141 147 153 149 149 148 148 149 153 152 151 152 154 152 143 146 148 149 149 163 162 169 174
272 272 233 159 167 154 147 153 154 149 149 147 146 145 145 143 147 146 147 152 157 159 156 149 147 142 139 140 140 171 147 132